This demonstration page uses our WeatherBlox Daily Observations layout. Learn more.

Left ArrowRight Arrow

39.29038, -76.61219

Hourly Observations for October 6, 2020

Temp ( °F °C ) Dew Point ( °F °C ) Humidity (%) Winds ( mph kmh ) Pressure ( in mb ) Visibility ( mi km ) Precip ( " mm )
12:54 am 00:54 Partly Cloudy 52 11.1 49 9.4 89 89 Calm 30.18 1022 10 16 0.00 0.00
1:54 am 01:54 Clear 52 11.1 49 9.4 89 89 Calm 30.18 1022 10 16 0.00 0.00
2:54 am 02:54 Clear 50 10 48 8.9 93 93 Calm 30.17 1022 10 16 0.00 0.00
3:54 am 03:54 Clear 50 10 47 8.3 89 89 Calm 30.16 1021 10 16 0.00 0.00
4:54 am 04:54 Clear 48 8.9 46 7.8 93 93 Calm 30.16 1021 10 16 0.00 0.00
5:54 am 05:54 Clear 46 7.8 44 6.7 93 93 Calm 30.16 1021 10 16 0.00 0.00
6:54 am 06:54 Mostly Clear 46 7.8 44 6.7 93 93 Calm 30.16 1022 10 16 0.00 0.00
7:54 am 07:54 Mostly Sunny 49 9.4 46 7.8 90 90 Calm 30.18 1022 10 16 0.00 0.00
8:54 am 08:54 Sunny 54 12.2 48 8.9 80 80 Calm 30.18 1022 10 16 0.00 0.00
9:54 am 09:54 Sunny 61 16.1 48 8.9 63 63 SSW 3 6 30.17 1022 10 16 0.00 0.00
10:54 am 10:54 Mostly Sunny 64 17.8 50 10 60 60 SW 8 13 30.16 1021 10 16 0.00 0.00
11:54 am 11:54 Mostly Sunny 68 20 51 10.6 55 55 SW 13 20 30.13 1020 10 16 0.00 0.00
12:54 pm 12:54 Mostly Sunny 71 21.7 52 11.1 51 51 WSW 9 15 30.10 1019 10 16 0.00 0.00
1:54 pm 13:54 Partly Cloudy 71 21.7 51 10.6 49 49 W 9 15 30.06 1018 10 16 0.00 0.00
2:54 pm 14:54 Mostly Sunny 72 22.2 50 10 46 46 WSW 7 11 30.03 1017 10 16 0.00 0.00
3:54 pm 15:54 Mostly Sunny 74 23.3 49 9.4 41 41 SW 10 17 30.01 1016 10 16 0.00 0.00
4:54 pm 16:54 Mostly Sunny 72 22.2 51 10.6 48 48 SW 9 15 30.00 1016 10 16 0.00 0.00
5:54 pm 17:54 Mostly Sunny 70 21.1 51 10.6 51 51 SSW 5 7 30.00 1016 10 16 0.00 0.00
6:54 pm 18:54 Mostly Clear 66 18.9 52 11.1 61 61 S 6 9 29.99 1016 10 16 0.00 0.00
7:30 pm 19:30 Mostly Clear 65 18.3 51 10.6 61 61 SSW 3 6 30.00 1016 10 16 0.00 0.00
7:54 pm 19:54 Clear 64 17.8 51 10.6 63 63 S 3 6 29.99 1016 10 16 0.00 0.00
8:54 pm 20:54 Clear 58 14.4 51 10.6 78 78 Calm 29.99 1016 10 16 0.00 0.00
9:54 pm 21:54 Clear 58 14.4 51 10.6 78 78 Calm 29.98 1015 10 16 0.00 0.00
10:54 pm 22:54 Clear 57 13.9 51 10.6 81 81 SW 3 6 29.98 1015 10 16 0.00 0.00
11:54 pm 23:54 Clear 56 13.3 51 10.6 84 84 W 3 6 29.96 1015 10 16 0.00 0.00

Powered by AerisWeather